Simultaneous Nadir Overpasses (SNOs) Predictions

Prediction of SNOs between LANDSAT-8 and NOAA-19 Satellite Orbit:

Table of predicted SNOs for the next 14.0 days since TLE Epoch: 8/22/2020
Index Date (LANDSAT-8) Time (LANDSAT-8) Lat,Lon (LANDSAT-8) SZA (LANDSAT-8 ) Date (NOAA-19) Time (NOAA-19) Lat,Lon (NOAA-19) SZA (NOAA-19 ) Distance(km) Time Diff (sec)
1 08/24/2020 07:56:55 79.90, 87.67 70.05 08/24/2020 07:56:58 79.89, 87.57 70.03 2.35 3
2 08/26/2020 13:30:40 -79.90,-175.75 109.17 08/26/2020 13:30:11 -79.91,-175.84 109.19 1.79 29
3 08/26/2020 14:20:07 79.86, -8.43 70.78 08/26/2020 14:21:13 79.88, -8.33 70.83 3.06 66
4 08/28/2020 19:04:25 79.89, -79.28 71.61 08/28/2020 19:03:30 79.92, -79.21 71.62 3.09 55
5 08/28/2020 19:53:52 -79.90, 88.44 108.36 08/28/2020 19:54:26 -79.89, 88.40 108.37 1.71 34
6 08/31/2020 01:27:37 79.89,-175.10 72.43 08/31/2020 01:27:46 79.91,-175.15 72.46 2.86 9
7 09/02/2020 07:01:23 -79.90, -78.48 106.74 09/02/2020 07:00:58 -79.92, -78.40 106.72 2.76 25
8 09/02/2020 07:50:49 79.89, 89.08 73.26 09/02/2020 07:52:01 79.89, 89.21 73.30 2.48 72
9 09/04/2020 12:35:07 79.91, 18.24 74.13 09/04/2020 12:34:18 79.92, 18.27 74.12 1.14 49
